Other Public Products
Issued by NWS Grand Forks, ND

Home | Current Version | Previous Version | Text Only | Print | Product List | Glossary On
Versions: 1 2 3 4 5 6 7 8 9 10 11 12 13 14 15 16 17 18 19 20 21 22 23 24 25 26 27 28 29 30 31 32 33 34 35 36 37 38 39 40 41 42 43 44 45 46 47 48 49 50
000
FPUS83 KFGF 221931
OPUFGF
PRAIRIE TO PINES WEATHER ROUNDUP
NATIONAL WEATHER SERVICE EASTERN NORTH DAKOTA/GRAND FORKS ND
200 PM CDT TUE AUG 22 2017

 **SATELLITE DATA USED TO AUGMENT SKY COVER AT AUTOMATED STATIONS**
 *****  WEATHER ACROSS EASTERN NORTH DAKOTA  *****

CITY           SKY/WX    TMP DP  RH WIND       PRES   REMARKS
GRAND FORKS    FAIR      75  42  30 NW23G29   30.05S
GRAND FORKS AF FAIR      75  40  27 N18G30    30.07S
GRAND CITY NWS NOT AVBL
BUXTON           N/A     77  42  28 NW20        N/A
DEVILS LAKE    FAIR      72  40  31 NW17      30.12F
FARGO          FAIR      75  44  33 NW22G29   30.08S
WAHPETON ARPT  FAIR      72  41  33 NW15G22   30.11S
$$

 *****  WEATHER ACROSS CENTRAL AND WESTERN NORTH DAKOTA  *****

CITY           SKY/WX    TMP DP  RH WIND       PRES   REMARKS
JAMESTOWN      FAIR      71  46  40 NW16      30.14S
BISMARCK       FAIR      76  39  26 W8        30.18F
MINOT          FAIR      77  38  24 NW13G22   30.14F
MINOT AFB      FAIR      75  36  23 NW15      30.13F
GARRISON         N/A     74  39  28 NW14G24   30.16F
WILLISTON      FAIR      77  38  24 S9        30.17F
DICKINSON      FAIR      75  38  26 VRB5      30.18F
HETTINGER      FAIR      77  40  26 VRB3      30.20F
$$

 *****  OTHER OBSERVATIONS NORTHEAST NORTH DAKOTA  *****

CITY           SKY/WX    TMP DP  RH WIND       PRES   REMARKS
WALHALLA       FAIR      72  70  94 N18G29    30.06F
LANGDON        FAIR      70  41  35 NW18G25   30.10S
CAVALIER       FAIR      72  45  37 N18G26    30.06S
GRAFTON        FAIR      73  45  35 NW18G26   30.08R
CANDO          FAIR      73  43  33 NW10G24   30.14S
FORT TOTTEN      N/A     74  45  35 NW7       29.95S
ROLLA          FAIR      72  41  33 NW17G23   30.14S
RUGBY          FAIR      72  41  33 NW12G23   30.13S
 ***** THE ABOVE OBSERVATIONS ARE NON NWS ARE NOT QUALITY
        CONTROLLED AND MAY MIS-REPORT RAIN FOR SNOW...
$$

 *****  OTHER OBSERVATIONS SOUTHEAST NORTH DAKOTA *****

CITY           SKY/WX    TMP DP  RH WIND       PRES   REMARKS
COOPERSTOWN    FAIR      73  45  35 NW18G26   30.12S
VALLEY CITY      N/A     73  41  31 N21G28    30.14S
OAKES          NOT AVBL
GWINNER        PTCLDY    73  46  38 NW16      30.14S
SHEYENNE NWR     N/A     74  45  35 NW13      29.95S
BUFFALO          N/A     72  38  28 NE15        N/A
WYNDMERE       NOT AVBL
 ***** THE ABOVE OBSERVATIONS ARE NON NWS ARE NOT QUALITY
       CONTROLLED AND MAY MIS-REPORT RAIN FOR SNOW...
$$

  *****  WEATHER ACROSS NORTHERN MINNESOTA  *****

CITY           SKY/WX    TMP DP  RH WIND       PRES   REMARKS
FLAG ISLAND    LGT RAIN  63  54  72 NW13      29.96R
WARROAD        FAIR      66  55  68 NW14G26   29.99S
ROSEAU         FAIR      70  54  56 N17G25    30.00R
HALLOCK        FAIR      73  41  31 NW21G30   30.02S HAZE
THF RVR FALLS  PTSUNNY   72  42  34 NW23G31   30.04S
HALSTAD          N/A     75  43  31 N20         N/A
FOSSTON        FAIR      73  41  31 W20G25    30.05S
BAUDETTE       LGT RAIN  63  56  78 NW13      29.96R
WASKISH        CLOUDY    66  54  63 W13G24    29.98S
CROOKSTON      FAIR      73  39  29 NW23G31   30.05S
$$
  *****  WEATHER ACROSS CENTRAL AND WEST MINNESOTA  *****

CITY           SKY/WX    TMP DP  RH WIND       PRES   REMARKS
BEMIDJI        PTSUNNY   70  45  40 NW18G28   30.01F
PARK RAPIDS    PTSUNNY   71  45  39 NW21G30   30.04S
WADENA         FAIR      70  46  43 NW13G21   30.06S
DETROIT LAKES  FAIR      72  43  35 NW22G28   30.08S
MOORHEAD       FAIR      73  43  33 W18G26    30.09S
FERGUS FALLS   FAIR      70  48  46 NW18      30.09S
ELBOW LAKE     FAIR      70  47  43 NW15G23   30.11S
MORRIS MN      FAIR      73  46  38 NW18G24   30.10S
STAPLES        FAIR      72  45  37 NW14G24   30.05S
WHEATON        FAIR      73  45  35 W12G18    30.13S
$$
  *****  WEATHER ELSEWHERE ACROSS MINNESOTA  *****

CITY           SKY/WX    TMP DP  RH WIND       PRES   REMARKS
DULUTH         PTSUNNY   65  52  62 W20G29    29.94R
INTRNTL FALLS  PTSUNNY   67  52  58 NW13G24   29.92S
ELY            PTSUNNY   63  48  59 NW9G23    29.89F
CLOQUET        CLOUDY    64  48  55 W9G18     29.97R
BRAINERD       PTSUNNY   69  46  43 NW14      30.03S
HIBBING        CLOUDY    63  50  62 NW17G23   29.95S
ALEXANDRIA     FAIR      70  47  43 NW15G25   30.11S
SAINT CLOUD    FAIR      71  46  40 NW17      30.05S
MINNEAPOLIS    FAIR      75  48  38 NW22G29   30.04R
$$

  *****  WEATHER ACROSS SOUTH DAKOTA  *****

CITY           SKY/WX    TMP DP  RH WIND       PRES   REMARKS
SIOUX FALLS    FAIR      73  51  46 N14G22    30.18S
BROOKINGS      FAIR      70  47  43 NW14      30.18S
WATERTOWN      FAIR      71  46  40 NW15G25   30.16F
HURON          FAIR      75  48  38 NW7       30.17F
SISSETON         N/A     73  48  41 NW16      30.12F
ABERDEEN       FAIR      76  42  29 NW13      30.16F
MITCHELL       FAIR      76  44  32 N10       30.19F
PIERRE         FAIR      75  43  31 NW6       30.19F
MOBRIDGE       FAIR      75  47  36 NW3       30.17F
RAPID CITY     FAIR      81  44  27 S13G22    30.19F
$$

  *****  SOME WEATHER IN NEARBY STATES *****

CITY           SKY/WX    TMP DP  RH WIND       PRES   REMARKS
GLASGOW MT     FAIR      79  34  19 VRB5      30.14F
GREAT FALLS MT FAIR      81  34  18 VRB3      30.14F
CHEYENNE WY    FAIR      70  54  56 S15       30.35F
SCOTTSBLUFF NE FAIR      81  49  32 S14       30.24F
OMAHA NE       FAIR      76  47  35 N14       30.17S
DES MOINES IA  FAIR      77  47  34 N15       30.10S
DAVENPORT IA   FAIR      76  57  51 W15G23    30.02R
CHICAGO IL     PTSUNNY   78  55  44 NW21      29.90R
EAU CLAIRE WI  FAIR      73  50  44 NW16G24   29.98S
LA CROSSE WI   FAIR      76  51  41 NW16      30.00R
$$

  *****  SOME NATIONAL WEATHER *****

CITY           SKY/WX    TMP DP  RH WIND       PRES   REMARKS
LA GUARDIA NY  PTSUNNY   88  76  67 S13G18    29.88F HX  99
RALEIGH NC     FAIR      94  68  42 SW8       30.03F HX  98
ATLANTA GA     FAIR      92  68  45 W6        30.08F HX  96
NEW ORLEANS LA LGT RAIN  77  72  84 S8        30.07F
OKLAHOMA CITY  PTSUNNY   88  70  55 W5        30.06S HX  93
ALBUQUERQUE NM FAIR      81  52  36 VRB5      30.30F
SALT LAKE CITY PTSUNNY   88  46  23 VRB5      30.20F
LOS ANGELES CA FAIR      74  64  71 W12       30.02F
BOISE ID       FAIR      85  44  23 CALM      30.11F
SEATTLE WA     FAIR      78  56  46 VRB3      30.02F
$$

*** WEATHER ACROSS MANITOBA...SASKATCHEWAN AND ONTARIO ***
                ***ONTARIO***

CITY           SKY/WX    TMP DP  RH WIND       PRES   REMARKS
GERALDTON      PTSUNNY   57  55  94 W6        29.67R
THUNDER BAY    PTSUNNY   66  50  55 W14G28    29.77R
SIOUX LOOKOUT  LGT RAIN  61  52  72 NW14G22   29.84S
TORONTO        PTSUNNY   77  70  78 W21G28    29.64F
BIG TROUT LK   CLOUDY    54  43  66 N9G21     29.86R
PICKLE LAKE    PTSUNNY   57  54  88 VRB9G21   29.79R
DRYDEN         CLOUDY    59  54  82 NW10G18   29.89R
KENORA         PTSUNNY   61  52  72 N14G21    29.95R
$$
                *** MANITOBA***

CITY           SKY/WX    TMP DP  RH WIND       PRES   REMARKS
BRANDON        PTSUNNY   75  39  27 NW15G24   30.10F
DAUPHIN        MOSUNNY   75  43  31 N17G24    30.08S
ISLAND LAKE    LGT RAIN  55  48  76 N13       30.02R
PILOT MOUND      N/A     70  37  30 NW13G18     N/A
THE PAS        MOSUNNY   72  48  43 CALM      30.06F
THOMPSON       CLOUDY    57  45  62 NE7       30.09R
WINNIPEG       PTSUNNY   68  54  60 N15G22    30.03R
CHURCHILL      PTSUNNY   50  43  76 N9        30.10F
GILLAM         MOSUNNY   55  41  58 NE8       30.07S
$$
                ***SASKATCHEWAN***

CITY           SKY/WX    TMP DP  RH WIND       PRES   REMARKS
ESTEVAN        MOSUNNY   75  37  25 N8        30.15F
KINDERSLEY     MOSUNNY   75  46  35 VRB5      30.09F
LLOYDMINSTER   PTSUNNY   72  55  56 W12       30.06F
PRINCE ALBERT  CLOUDY    66  50  55 SE5       30.09F
REGINA         PTSUNNY   73  36  25 W3        30.13F
YORKTON        PTSUNNY   72  43  35 NW12      30.12F
N. BATTLEFORD  CLOUDY    72  52  49 W8        30.08F


USA.gov is the U.S. government's official web portal to all federal, state and local government web resources and services.